sat.trackr.live / text

‹ back to catalog

ONEWEB-0249

NORAD 48967 · 2021-060A

PAYLOAD ACTIVE UNKNOWN

§ Identity

Operator
Country
UK
Launch date
2021-07-01
Launch site
VOSTO
Launch vehicle
Mass (kg)
RCS (m²)

Purposes: comms

External: N2YO · Heavens-Above · Gunter

§ Orbital elements

Epoch: 2026-09-11T22:01:03.478368Z

Period
109.37 min
Inclination
87.9139°
Eccentricity
0.0002006
Mean motion
13.16593347 rev/d
Perigee alt
1,196.2 km
Apogee alt
1,199.3 km
Semi-major
7,575.9 km
B*
-7.5276e-4
RAAN
211.5556°
Arg perigee
76.0654°
Mean anomaly
284.0700°
Rev number
25,102

§ Raw data

ONEWEB-02491 48967U 21060A   26254.91740137 -.00000275  00000+0 -75276-3 0  99992 48967  87.9139 211.5556 0002006  76.0654 284.0700 13.16593347251027

JSON: /api/v1/satellites/48967 · /tle

For live sub-satellite position, see the globe view (requires WebGL).

§ Visibility from observer

Set your observer location to see the next 7 days of passes ≥ 10°. The values pass through the URL so the page stays shareable.

No JS? Fill the form by hand. The geolocation button needs JavaScript.